Theta_e
344 348 352 358 356 352 357 355 346 347 347 346 348 349 350 348 347 339 348 346 343 348 348 349 350 353 351 351 352 351 352 352 352 353 353 353 353 352 353 353 353 354 352 352 352 352 352 351 351
351 356 354 356 355 360 358 351 353 346 346 344 345 346 347 350 347 347 347 343 343 346 350 350 350 351 351 350 350 350 352 352 352 352 352 353 350 354 354 353 351 353 352 351 351 351 351 351 347
349 348 352 357 360 358 356 352 346 346 345 343 346 344 346 350 347 348 347 343 346 348 348 350 350 350 351 350 350 351 351 352 352 353 352 346 353 352 352 351 352 352 353 352 352 352 350 344 343
353 353 353 360 364 356 351 350 346 350 348 345 346 348 345 346 347 347 342 345 346 349 349 351 351 352 351 351 350 349 350 352 353 352 353 351 353 353 351 353 351 352 352 352 351 350 346 345 342
345 353 360 363 363 351 348 345 348 351 350 349 348 351 350 349 348 346 348 347 347 349 348 351 351 352 351 351 350 349 351 351 353 352 352 352 352 353 353 352 348 346 346 347 347 349 346 344 345
356 353 361 363 362 352 350 345 352 353 350 349 351 351 351 349 350 350 350 346 346 347 350 351 349 351 351 351 352 352 352 352 352 352 347 350 351 351 350 347 346 346 345 346 347 350 348 345 343
357 358 362 362 361 359 356 348 354 352 353 351 348 354 350 349 350 351 350 345 346 347 349 350 350 351 351 352 352 353 353 352 351 348 342 344 343 344 345 344 344 344 344 344 345 344 343 343 342
356 359 365 363 363 361 355 348 352 352 354 347 348 355 354 349 351 351 351 347 346 348 347 346 349 351 350 351 350 352 352 352 350 348 346 341 339 342 342 342 343 343 343 342 343 343 343 343 343
351 360 365 362 361 357 354 351 351 349 351 349 347 349 348 350 352 351 350 348 349 348 346 347 347 349 347 348 351 351 352 349 349 348 345 343 341 339 340 339 339 339 339 339 340 340 342 343 344
359 359 361 356 354 352 352 348 350 352 351 351 348 345 349 351 351 350 350 349 349 349 345 340 343 346 346 345 350 348 348 345 344 341 337 336 336 335 336 340 336 337 340 340 340 346 347 345 349
360 361 357 357 354 348 348 346 350 352 354 350 348 347 350 352 351 350 349 346 343 340 342 345 337 335 343 339 338 336 337 341 341 341 342 342 343 344 344 338 337 340 334 338 345 340 341 344 347
355 356 354 356 352 352 347 347 354 352 350 347 344 344 349 350 351 350 349 347 343 342 347 346 340 330 335 333 332 336 341 343 347 349 350 349 348 348 342 340 344 340 334 337 335 340 346 345 347
357 356 353 354 354 353 350 353 353 353 348 345 343 343 348 350 351 350 349 347 343 346 348 347 339 333 330 331 334 338 342 345 344 348 351 349 349 349 345 339 338 335 337 336 337 342 346 349 349
351 351 351 354 351 350 352 352 352 350 346 345 345 344 343 344 343 348 347 346 342 346 348 344 338 332 334 336 339 343 347 350 350 343 348 349 343 342 341 342 340 337 338 339 343 345 348 349 347
351 354 351 350 350 352 349 354 355 348 346 346 346 345 343 342 342 340 342 343 342 346 348 342 336 334 336 340 342 344 347 349 353 351 346 341 341 343 342 337 340 342 343 345 346 347 346 346 346
354 352 354 351 350 349 350 355 352 347 346 347 346 345 345 342 342 342 339 339 340 346 348 342 342 337 338 339 340 341 342 347 351 352 341 343 346 347 346 344 345 347 345 346 345 346 345 344 347
355 361 359 357 351 351 354 355 351 347 347 347 346 345 345 342 340 340 340 339 339 344 346 343 343 342 338 345 350 350 347 348 352 353 349 350 350 349 346 346 346 348 345 345 348 349 349 349 346
363 357 354 356 352 353 354 352 350 348 346 346 345 345 345 342 338 337 338 339 340 344 341 341 342 342 345 349 349 348 349 350 347 351 352 350 349 349 348 348 348 348 347 350 351 350 349 348 345
360 358 355 355 353 355 357 358 354 352 349 348 346 344 345 343 339 337 338 339 342 343 342 342 343 345 348 347 345 347 347 345 347 347 348 348 351 350 350 349 350 350 349 350 344 344 348 346 344
358 361 354 356 354 356 356 359 354 354 353 351 351 351 346 343 340 337 337 340 342 343 343 343 344 344 345 346 342 345 346 345 348 347 346 342 348 350 349 351 351 350 348 342 341 346 346 346 345
356 357 351 356 356 355 358 357 358 357 354 355 354 353 350 347 342 337 336 341 342 342 344 344 343 341 341 342 344 344 344 349 352 353 351 347 347 352 349 350 350 350 346 347 348 348 346 345 345
357 354 354 354 358 362 357 362 356 355 354 354 357 356 352 350 346 342 337 341 342 342 342 343 343 343 343 342 341 344 343 348 349 350 352 352 352 351 350 350 349 348 349 349 348 347 346 345 345
357 353 352 351 355 358 361 360 354 353 353 351 352 355 351 349 349 348 341 340 342 342 342 343 344 345 344 343 344 344 343 344 346 349 351 350 348 350 349 349 348 348 348 346 345 343 343 343 343
352 353 353 351 356 362 357 360 353 352 352 350 353 354 355 355 354 352 350 344 342 343 342 342 344 345 345 345 343 345 347 348 349 348 349 347 346 345 344 343 345 345 344 342 339 336 336 331 329
349 352 355 356 359 359 352 352 347 348 350 350 353 352 352 350 348 347 343 345 343 344 344 344 343 346 345 346 345 347 349 349 349 348 347 347 344 341 340 340 341 342 340 337 332 330 330 326 324
345 345 347 354 354 347 354 356 348 347 345 349 345 349 349 347 343 342 347 349 344 343 344 345 346 346 347 348 349 350 349 348 347 345 346 345 342 340 339 339 335 332 330 327 324 322 324 325 323
343 344 339 342 334 348 349 348 352 342 346 350 348 342 341 350 349 347 344 343 345 343 344 345 347 349 350 349 349 348 348 335 345 339 340 339 338 337 335 331 330 327 326 324 322 321 320 322 321
338 336 339 328 330 327 326 349 347 352 344 345 355 344 351 349 348 345 343 341 341 344 346 346 346 346 342 343 344 344 343 339 336 337 337 335 337 336 334 334 330 326 325 324 323 323 321 321 321
324 323 325 323 319 327 324 326 344 350 343 341 355 355 353 348 347 344 341 339 338 338 340 341 340 341 340 336 338 336 334 334 334 335 334 335 335 334 332 329 327 327 326 326 327 324 321 322 324
323 323 318 321 323 318 320 334 340 338 342 349 352 351 349 347 345 343 340 339 339 338 337 337 337 338 336 334 333 332 332 332 332 332 332 330 330 329 328 328 328 327 326 326 320 320 321 323 323
Wind_Speed
1 2 2 3 3 3 2 4 3 4 3 2 13 3 6 2 2 3 10 16 24 22 19 16 15 13 13 13 14 14 16 16 17 18 18 18 17 16 16 16 15 15 14 13 12 12 11 11 12
1 8 3 2 4 4 2 2 4 2 6 10 9 4 5 3 4 9 13 17 24 23 20 17 16 15 14 14 14 14 15 15 16 17 17 16 17 15 15 15 14 14 14 13 12 12 11 10 10
4 6 3 3 2 2 4 3 6 3 5 4 4 4 4 2 9 14 8 27 24 22 20 19 17 16 15 14 15 14 14 15 16 16 15 15 14 13 14 14 14 12 12 12 11 10 9 9 9
6 5 4 4 3 2 5 7 11 7 2 8 9 7 5 4 13 12 26 27 25 23 20 18 16 16 15 15 15 15 15 16 15 16 15 15 13 14 14 14 13 11 11 10 10 9 8 7 6
5 2 4 3 4 2 4 8 5 4 4 7 3 6 4 3 12 24 25 24 26 24 21 19 17 16 16 15 16 16 16 16 15 16 14 13 13 13 13 13 11 11 10 10 9 8 7 5 4
4 2 4 2 5 3 4 6 7 9 12 11 10 7 1 17 24 22 22 24 24 24 20 18 17 16 15 16 15 15 14 14 14 13 12 11 11 11 11 11 10 9 9 7 6 5 3 1 1
4 3 3 1 3 2 4 6 5 9 9 6 9 5 3 12 22 22 22 23 22 21 20 19 17 15 14 15 14 13 12 13 11 11 11 10 11 11 10 9 8 7 7 5 4 4 2 2 3
3 3 2 1 3 2 8 3 9 9 4 10 11 6 6 11 22 22 19 19 21 20 19 19 18 17 15 15 13 12 12 11 10 11 11 11 11 10 9 7 6 5 4 4 3 2 2 5 5
1 3 1 3 4 3 5 6 7 5 12 2 4 6 11 25 24 22 18 17 18 17 18 18 18 19 17 16 13 12 10 10 10 10 12 12 12 10 9 8 5 4 2 1 1 2 3 7 6
2 2 0 1 3 4 6 15 11 6 9 3 10 11 26 28 24 21 18 18 19 18 19 19 18 18 17 16 15 14 13 12 13 13 12 12 12 12 10 7 6 3 1 1 1 2 5 8 8
1 1 2 8 4 5 11 9 4 16 3 11 19 18 22 25 22 20 17 25 28 22 18 19 19 18 17 16 15 15 16 15 14 13 13 13 13 11 9 9 8 6 3 1 2 5 7 6 7
2 7 3 3 6 2 8 7 7 8 5 15 17 19 22 17 19 20 19 20 21 23 19 16 18 17 18 16 18 18 17 15 13 11 12 14 13 12 10 9 8 9 3 1 4 4 4 4 6
3 3 8 12 13 7 8 5 6 8 14 13 12 18 20 16 22 23 27 25 25 25 20 19 18 19 19 20 19 18 16 15 13 15 12 14 16 14 11 9 5 5 3 2 4 5 6 6 7
5 7 13 10 5 9 11 4 7 6 16 14 14 13 15 18 21 21 20 24 28 27 24 21 21 20 20 20 19 18 16 14 15 15 12 16 12 10 9 12 12 6 1 4 2 5 6 8 4
9 7 6 7 2 4 6 4 3 16 15 16 15 13 11 11 20 23 28 30 33 32 28 26 23 21 20 18 17 16 14 13 14 14 18 15 14 10 5 9 7 3 1 1 2 6 8 9 5
4 4 5 5 7 2 5 4 5 12 16 15 16 14 12 10 18 22 28 33 35 33 33 30 27 25 21 19 17 19 17 16 17 17 17 20 15 12 10 10 9 6 2 4 4 5 4 3 6
5 2 1 7 3 1 4 2 7 11 12 14 15 14 13 8 11 24 31 35 36 40 36 33 31 29 24 19 15 15 15 18 18 19 19 17 16 14 13 13 14 10 9 9 7 6 6 6 6
3 4 4 3 2 2 2 6 7 7 9 11 13 13 13 8 13 23 29 33 35 40 37 38 36 30 28 22 15 14 12 18 19 16 19 19 19 18 18 17 17 17 16 15 13 10 9 8 9
3 5 7 3 5 3 5 5 7 11 12 11 11 12 13 10 16 25 31 34 32 35 38 38 37 33 28 24 21 18 14 10 16 20 19 20 24 22 21 20 20 21 20 15 11 11 9 6 5
7 8 4 1 9 4 5 3 7 9 16 15 12 8 7 6 11 20 26 29 34 39 41 40 37 33 31 28 23 21 17 11 12 15 19 18 22 24 21 19 16 15 16 14 11 9 7 6 3
3 3 3 1 5 1 2 6 6 8 2 1 4 1 3 7 13 15 20 28 29 33 39 41 36 34 32 33 27 23 18 13 10 10 14 17 19 26 23 20 14 12 11 11 8 6 6 6 1
2 3 9 7 4 5 5 5 6 5 6 5 4 5 6 5 5 7 16 23 31 36 40 42 38 35 31 29 28 28 27 18 16 12 13 16 19 19 19 15 14 12 12 9 7 4 4 8 6
9 6 8 8 3 3 2 1 7 3 6 7 4 8 7 6 1 4 8 23 22 24 29 41 40 39 35 32 30 28 26 23 19 15 16 14 15 17 14 8 9 11 10 9 6 5 4 5 6
2 2 5 6 4 1 4 6 7 4 6 3 4 6 8 7 6 5 6 16 20 21 24 26 37 39 40 37 33 30 25 23 19 16 15 14 13 13 11 9 8 7 6 5 6 5 6 4 5
4 5 3 3 1 6 3 3 9 2 6 8 9 9 9 10 11 9 3 9 23 32 31 26 33 34 37 38 36 30 26 22 22 20 15 15 13 10 9 9 8 7 7 7 7 6 9 9 12
6 7 5 5 4 5 2 6 5 4 4 3 2 3 4 7 3 11 4 4 14 24 34 30 25 32 32 31 32 27 17 3 9 6 7 9 10 8 7 7 9 9 10 11 11 13 13 13 14
5 4 5 3 3 2 3 6 1 3 2 1 1 3 4 6 8 10 10 13 12 24 30 32 25 26 25 25 25 19 14 7 18 11 10 9 9 10 11 11 11 12 12 11 10 10 10 8 9
2 3 3 3 2 4 4 5 4 7 8 4 4 6 6 3 6 7 9 11 13 9 22 30 30 19 16 18 17 15 13 18 14 12 11 12 12 12 11 9 9 10 8 6 5 5 6 6 6
3 3 4 4 4 2 3 6 5 12 14 8 4 3 4 4 5 5 7 13 17 18 19 18 19 21 20 12 18 15 16 15 13 12 13 12 10 9 9 10 10 9 8 6 5 6 6 7 6
1 2 4 5 6 3 5 6 4 4 11 13 8 6 3 4 5 4 7 10 13 17 19 18 19 22 22 20 18 17 15 14 14 12 11 9 9 9 8 7 7 7 6 6 7 7 6 6 5
Wind_Direction
334 282 337 64 53 80 32 47 94 91 78 271 152 172 143 50 103 195 153 151 156 154 157 152 144 137 128 127 121 118 112 112 111 113 112 112 112 113 116 113 112 105 104 102 98 96 98 102 101
149 136 101 80 74 71 353 48 91 77 111 103 94 81 56 80 71 114 128 165 158 154 153 148 145 139 138 131 128 123 120 117 116 112 111 111 117 118 114 111 111 110 110 106 100 94 94 97 102
119 154 84 75 97 159 118 87 103 90 134 61 98 79 75 102 110 144 170 161 156 154 154 148 145 141 143 139 131 128 124 124 124 118 118 117 119 122 117 112 112 111 105 101 98 94 97 101 100
347 16 44 72 347 71 122 140 129 125 99 66 106 69 69 126 146 169 155 160 158 155 153 149 144 145 143 139 138 136 138 131 126 122 117 121 119 122 117 117 119 113 104 97 90 88 96 104 113
47 63 56 45 308 32 72 126 121 123 88 95 102 97 89 95 148 152 158 161 158 156 156 149 150 148 150 148 146 148 144 134 129 127 128 129 130 124 123 123 121 114 106 97 88 82 85 95 119
37 89 51 36 321 88 88 107 103 93 100 95 94 100 94 142 143 152 158 163 162 157 156 152 153 152 151 152 154 154 147 137 134 134 136 134 130 128 129 126 125 116 104 94 84 78 85 121 193
102 63 128 288 293 59 111 124 102 123 118 87 136 90 112 138 147 154 163 162 162 160 159 157 156 154 156 158 157 156 146 135 136 132 134 136 135 134 135 134 130 116 105 89 73 53 17 289 283
110 104 108 260 189 220 124 106 138 126 63 121 143 161 171 157 151 156 161 163 164 164 166 163 162 160 166 160 161 156 146 144 139 137 138 141 144 142 141 143 131 119 109 97 56 28 343 306 295
65 65 138 178 189 216 161 126 164 91 133 176 224 126 143 144 146 149 152 159 166 171 172 169 166 165 169 164 160 153 147 150 145 142 152 153 150 152 152 143 142 135 115 90 50 310 296 287 280
119 79 150 253 235 175 150 142 153 121 152 60 103 102 136 145 149 152 159 162 175 181 181 179 178 174 171 168 164 163 158 156 156 154 154 146 151 152 152 153 164 140 105 225 107 289 302 294 293
65 202 49 9 322 163 142 139 105 134 189 176 150 144 151 155 161 168 170 175 177 178 178 185 181 183 177 174 165 161 156 157 155 151 152 155 157 157 164 166 168 140 65 51 244 269 306 308 316
327 240 270 173 273 277 147 140 132 162 196 172 153 146 156 162 170 176 178 177 181 178 177 180 182 180 179 171 167 160 160 163 163 162 162 176 171 170 174 182 190 180 340 191 328 28 33 349 336
224 278 170 206 223 231 121 222 168 193 142 150 155 150 163 170 180 184 183 182 183 178 178 181 178 176 174 172 174 172 174 176 168 172 168 184 187 187 184 201 235 235 286 276 337 313 336 335 342
313 300 286 183 191 149 138 178 103 150 146 153 167 177 167 176 178 183 182 179 186 184 178 179 181 176 178 184 185 183 181 180 183 190 194 181 182 194 210 209 241 247 214 330 335 314 296 325 355
329 329 34 27 353 90 102 30 212 147 152 160 178 188 193 180 172 182 187 187 192 190 180 177 176 182 185 188 192 195 197 202 198 202 190 192 191 198 193 207 170 124 157 358 289 278 287 284 285
43 7 15 330 358 84 86 273 113 157 159 174 185 197 203 200 194 189 183 189 192 189 187 181 185 185 194 202 215 221 208 215 208 216 207 202 194 200 198 183 174 162 276 247 266 262 264 274 292
35 288 143 334 341 58 78 254 143 172 183 184 195 204 209 190 199 196 195 192 189 190 188 187 190 191 195 200 213 214 212 213 219 214 212 212 210 206 204 194 187 194 197 197 201 211 231 261 276
311 334 319 242 328 84 143 118 135 171 195 213 216 205 212 185 195 185 188 190 190 188 189 191 192 192 186 185 190 187 206 217 219 214 220 222 223 214 214 212 203 199 196 196 203 205 209 240 290
179 219 249 345 333 65 321 164 191 190 201 198 207 222 206 187 186 178 183 185 181 184 184 187 187 186 183 180 184 197 208 195 208 228 231 240 228 217 215 215 214 212 215 215 217 233 238 255 295
239 268 279 37 7 107 11 303 243 227 209 195 202 210 207 165 163 180 182 182 183 185 187 187 191 193 198 195 192 201 207 210 213 221 228 230 222 211 204 202 205 207 217 225 227 235 249 250 290
340 38 317 18 345 35 267 284 199 241 254 170 234 148 122 193 175 182 184 187 190 191 193 196 198 194 197 204 202 196 204 193 191 206 215 217 217 210 209 213 219 225 228 246 246 245 250 263 276
288 263 213 170 127 253 42 269 256 226 231 209 211 184 175 165 172 179 186 194 196 197 198 201 200 199 199 199 200 198 200 200 212 220 217 194 188 194 204 215 222 232 232 225 238 243 232 253 236
233 210 188 161 156 63 217 16 272 31 253 252 185 190 183 151 92 328 210 205 207 201 204 204 203 205 204 205 203 205 205 214 219 211 198 208 211 215 213 205 220 215 215 213 212 199 188 226 234
285 151 47 43 59 278 213 158 274 204 223 208 157 157 165 174 161 141 290 216 205 210 212 215 207 208 209 209 211 215 217 214 196 197 199 193 195 201 206 222 191 176 177 173 180 159 139 154 133
73 51 349 16 351 228 321 155 248 253 221 188 172 189 188 187 172 161 129 190 190 196 209 213 213 209 210 211 212 216 221 212 211 206 199 204 205 206 200 199 204 190 188 178 166 153 134 135 113
183 151 165 228 206 250 42 232 270 327 347 69 62 17 13 334 311 76 13 345 216 192 200 211 209 210 207 207 202 202 200 179 272 258 221 226 216 192 161 152 153 146 136 126 126 118 111 110 107
185 181 193 164 59 77 232 285 101 33 29 143 169 78 27 16 24 37 35 28 9 195 194 202 209 206 194 188 185 181 169 205 233 205 214 202 162 147 140 138 138 138 140 137 126 113 112 113 113
158 179 27 9 258 266 269 276 239 230 224 249 235 157 119 82 37 45 63 61 55 109 173 191 208 176 145 155 157 159 158 187 192 188 179 168 155 147 147 151 160 157 155 156 157 133 125 121 117
8 2 42 120 138 203 315 273 194 220 206 173 181 88 81 97 62 48 67 87 92 97 120 137 134 142 131 139 152 156 164 165 161 165 165 159 143 143 144 148 146 143 144 146 151 156 140 119 102
2 112 130 114 273 190 155 273 294 301 164 152 156 145 115 89 124 103 86 93 99 99 101 111 121 132 146 163 151 146 150 144 147 151 144 134 135 136 144 148 150 150 150 145 138 136 137 124 119